Dewpoint
50 50 50 50 49 48 46 37 26 43 50 43 42 38 38 36 36 36 35 35 32 31 31 30 27 29 38 41 39 33 37 34 28 31 37 37 35 31 31 28 26 30 34 29
49 49 50 50 49 48 36 33 30 46 45 34 38 37 37 35 34 37 34 33 34 34 31 29 29 31 42 42 39 39 39 35 31 31 36 36 33 34 33 32 37 30 29 26
49 49 50 50 49 47 43 30 34 42 43 33 31 35 34 37 40 38 35 34 36 33 32 33 31 31 40 41 41 42 43 34 33 29 30 35 31 29 29 31 34 32 30 27
48 48 50 50 49 48 45 31 28 34 35 34 29 32 33 35 37 39 38 34 34 33 33 32 32 32 34 39 41 39 36 32 31 31 31 30 30 30 30 29 31 30 29 24
48 48 49 49 49 48 41 34 34 35 30 33 31 31 32 32 34 38 36 36 35 35 34 34 32 30 29 33 38 34 36 32 34 37 32 29 27 27 25 25 28 27 25 25
48 48 47 48 49 47 36 33 33 32 29 33 31 30 29 30 34 38 37 37 36 36 35 37 37 36 36 36 35 34 36 35 34 29 27 27 27 26 26 25 24 25 24 26
48 48 47 47 48 46 38 35 34 29 32 27 31 29 28 29 30 31 33 35 35 36 39 40 39 37 35 35 35 35 35 35 33 33 29 26 26 27 23 25 26 27 28 29
48 48 47 47 47 48 44 42 34 27 25 26 25 27 28 28 33 31 35 38 41 40 39 37 35 35 35 35 34 35 35 35 33 30 26 25 23 24 25 26 27 29 30 31
47 47 47 47 48 48 47 42 41 34 26 23 24 26 26 27 28 36 37 43 43 41 38 36 33 27 28 29 33 37 38 39 35 32 28 21 20 27 29 29 27 30 34 33
47 47 47 47 48 48 44 43 45 37 33 28 26 26 26 29 30 31 34 41 40 41 38 35 31 28 27 26 27 33 34 35 33 31 31 29 26 28 31 29 30 31 31 31
47 47 47 47 48 48 44 41 45 37 34 33 31 33 33 30 34 37 39 38 40 41 37 33 33 31 28 25 23 30 31 30 31 31 31 26 30 30 31 37 36 35 33 29
47 47 47 47 47 47 45 37 46 45 39 39 42 39 41 41 41 41 40 36 36 37 36 34 34 31 30 28 25 25 26 28 30 28 29 34 32 34 37 37 36 37 34 33
46 46 46 47 47 46 44 37 45 42 38 38 39 35 37 41 42 46 40 39 37 38 39 37 34 30 28 27 28 26 28 29 30 30 30 31 36 37 38 38 36 35 34 34
45 45 46 46 47 47 46 40 44 41 39 33 36 39 39 41 43 44 45 44 44 43 44 39 37 33 35 32 33 33 33 34 33 34 35 35 35 33 35 38 35 35 36 36
45 45 46 46 47 47 45 44 44 43 36 34 35 38 38 40 42 42 43 43 41 41 40 39 37 37 37 37 37 33 31 33 34 35 34 34 32 34 39 38 36 36 36 35
44 45 45 46 46 45 42 37 43 45 42 36 31 37 37 38 40 40 40 40 39 39 39 38 39 40 37 34 32 30 34 34 34 36 37 34 38 39 37 37 37 36 34 31
44 45 45 45 45 43 37 34 34 45 43 36 31 32 36 37 37 39 38 39 37 37 37 36 35 36 36 33 30 28 27 31 32 32 31 36 38 37 37 36 34 33 30 25
44 44 45 44 44 43 39 40 44 44 39 38 31 29 32 38 36 34 38 36 37 35 35 35 32 31 35 32 26 26 27 26 27 28 27 30 35 37 36 34 32 29 24 19
44 44 44 43 39 37 37 41 44 43 38 32 32 26 27 36 35 36 36 36 32 32 32 31 30 28 26 27 24 24 24 26 28 28 28 29 36 36 35 33 31 26 21 16
43 41 38 34 37 37 40 39 38 38 38 36 29 26 28 34 34 33 33 33 30 29 27 27 27 28 27 26 25 24 24 23 23 24 28 31 34 35 34 33 30 26 21 16
39 36 34 39 39 37 37 31 31 31 30 32 26 30 30 34 30 30 31 30 29 25 24 26 24 21 26 25 25 27 27 26 24 25 27 33 34 34 34 32 28 25 19 14
37 37 41 40 35 33 29 28 31 30 26 30 22 27 32 33 34 30 31 27 27 23 30 28 23 20 21 21 22 23 24 25 26 25 25 32 33 33 34 30 26 20 15 12
41 38 34 31 32 27 25 21 26 22 31 26 27 26 33 34 32 31 28 27 26 28 27 22 18 19 21 23 25 29 31 29 27 26 26 29 32 34 33 27 22 17 11 11
32 31 27 28 27 26 25 18 19 23 29 29 30 32 28 30 29 29 26 26 26 24 20 17 24 23 23 25 27 30 31 31 31 30 32 33 33 32 28 24 19 15 15 18
31 31 22 29 25 26 24 23 22 24 25 30 31 29 32 30 29 28 27 27 23 19 15 20 26 22 24 28 29 31 31 33 33 33 33 32 30 27 24 22 15 19 22 20
32 33 28 30 27 27 28 26 26 26 29 33 31 32 31 28 27 28 25 20 16 16 23 26 26 27 29 30 32 32 32 33 32 31 29 27 25 22 19 15 18 22 20 19
32 31 32 33 30 33 34 31 29 30 32 31 29 27 25 25 23 21 22 20 22 25 26 29 30 31 32 33 33 33 32 31 29 28 26 24 22 19 14 15 18 15 16 18
Wind_Speed
24 22 22 21 20 18 12 11 9 11 18 14 9 17 15 14 15 10 9 7 8 9 8 7 4 0 8 8 6 6 5 5 11 1 2 3 6 6 3 3 4 5 3 12
26 24 23 22 23 24 15 12 8 7 20 18 19 15 16 14 14 21 14 9 8 6 8 10 6 3 4 5 5 6 3 4 9 6 3 1 4 3 6 7 3 11 8 7
26 25 24 24 26 28 11 8 6 6 15 23 24 23 17 16 6 11 11 7 4 5 8 4 4 4 4 5 6 4 3 9 10 13 7 5 10 12 13 13 9 12 18 24
29 26 25 25 26 25 10 11 9 12 12 23 22 24 15 21 13 7 9 12 14 15 8 12 13 12 7 6 2 2 4 10 13 15 14 14 15 17 18 19 21 23 23 25
26 23 24 29 29 24 14 9 4 5 8 21 25 19 26 25 22 15 11 15 20 15 14 13 8 12 14 8 5 5 3 8 7 7 15 18 18 23 22 21 21 21 20 19
27 27 27 24 23 21 14 13 7 9 8 21 23 25 21 27 24 19 16 19 13 14 19 6 7 2 3 2 6 7 5 6 5 15 11 7 15 20 18 16 14 12 15 16
27 28 27 25 26 29 11 11 9 9 7 17 22 25 23 18 27 19 15 15 16 9 5 5 2 4 10 13 14 14 12 7 6 5 10 8 13 2 4 6 8 10 10 15
28 27 28 27 26 28 17 8 13 12 12 14 17 20 24 21 12 23 13 7 4 8 7 4 6 8 8 19 20 18 16 9 4 6 13 14 17 10 9 6 10 3 2 8
28 28 28 26 24 23 20 7 10 7 13 14 13 17 17 20 20 15 16 6 4 5 6 6 7 9 10 7 6 4 2 6 9 8 7 6 1 6 4 4 14 8 7 8
28 29 28 26 25 23 19 10 6 7 6 9 11 13 16 16 19 20 17 10 8 9 10 10 10 12 8 9 9 8 6 5 18 18 8 10 13 7 2 4 1 2 5 5
30 29 28 26 26 23 21 17 7 11 9 8 7 10 6 13 11 12 7 13 8 13 11 10 5 7 11 18 18 14 13 10 8 10 8 12 6 7 7 4 1 4 6 3
31 30 29 26 26 25 23 11 10 4 3 4 6 9 8 5 8 6 10 9 13 12 10 10 6 9 8 15 18 19 17 16 10 10 8 5 5 2 3 4 8 7 5 7
30 30 29 27 26 25 25 17 12 8 4 5 7 12 7 5 5 3 6 7 6 5 3 6 7 11 10 16 17 19 12 11 12 11 12 16 9 7 8 7 5 1 6 12
29 28 28 28 27 27 27 19 13 12 6 5 6 3 6 1 4 5 8 10 4 3 4 8 7 9 5 12 8 12 6 7 13 17 17 14 19 17 8 4 5 7 9 10
29 27 27 28 27 28 23 15 13 17 13 7 3 5 11 3 5 6 6 7 9 7 5 6 6 7 4 4 4 12 14 14 16 16 12 13 13 10 0 9 10 10 10 10
29 28 28 28 28 27 17 10 16 19 17 4 2 6 9 8 8 8 4 2 4 4 3 5 4 2 6 7 8 10 19 23 25 22 20 20 9 3 7 8 12 13 13 12
30 29 29 29 30 23 23 6 7 23 8 5 3 3 2 9 7 3 4 2 6 6 5 6 8 6 6 11 26 20 18 19 24 22 20 11 11 9 9 10 13 15 13 12
31 30 29 29 31 17 22 6 20 25 8 6 5 2 3 3 6 8 6 5 5 7 6 4 12 15 10 12 14 20 25 32 33 33 29 25 19 10 12 14 17 17 16 16
33 31 30 16 16 14 24 13 21 16 8 8 7 12 7 7 3 4 5 5 7 5 9 16 11 18 17 12 17 21 26 31 31 26 26 27 20 15 16 18 19 18 18 17
37 24 10 9 13 14 23 10 13 9 8 7 9 13 11 13 7 5 7 5 6 6 9 7 21 32 31 30 28 27 30 27 25 26 27 21 17 19 20 22 19 18 19 18
20 12 6 6 28 11 11 8 11 5 9 9 18 13 10 11 12 7 8 7 7 5 8 9 8 13 18 27 39 38 34 33 31 29 26 17 17 20 21 22 20 19 19 18
17 13 9 11 9 7 9 9 9 7 10 12 26 24 14 11 8 7 8 6 8 9 7 6 7 10 18 26 24 24 23 23 26 28 26 20 22 18 20 21 21 20 19 18
11 12 10 7 10 13 11 19 8 14 8 14 19 24 11 6 11 5 9 10 10 7 6 7 12 16 19 18 15 13 13 15 18 22 25 16 15 18 20 22 21 21 20 19
7 10 12 10 11 15 10 28 28 17 14 18 25 18 9 8 15 7 7 9 8 8 11 23 16 19 22 22 20 10 11 10 11 13 16 17 19 20 21 21 22 21 20 18
6 7 15 10 13 22 19 21 28 23 23 25 24 11 6 11 5 7 8 8 8 11 25 23 14 16 16 11 9 10 10 9 13 16 17 18 20 21 19 19 22 20 19 19
3 6 11 8 17 22 18 20 26 23 24 25 21 6 8 6 8 9 9 7 10 21 19 14 12 10 8 7 7 8 9 12 14 16 18 21 23 24 24 23 20 18 19 18
6 7 11 19 14 20 18 21 23 23 29 21 11 12 9 8 9 13 11 23 27 14 12 8 11 8 7 5 6 7 11 15 17 18 20 22 22 23 25 22 18 19 17 15
Wind_Direction
174 170 167 168 163 167 186 180 207 152 172 185 202 222 198 221 215 204 245 270 265 199 191 277 270 26 47 4 334 291 58 302 260 150 55 355 306 305 273 290 291 270 303 275
171 171 170 167 166 177 181 193 192 172 193 204 214 219 219 239 233 199 194 213 245 226 183 201 242 216 58 23 20 8 352 261 253 252 223 199 226 218 302 293 347 266 271 275
171 171 171 172 176 196 232 204 168 159 210 232 209 208 213 207 213 261 209 213 204 201 188 247 182 237 115 48 53 355 295 266 268 275 302 226 269 283 280 262 240 268 268 292
171 173 174 178 185 201 210 221 207 186 189 213 221 206 206 208 187 214 238 212 227 218 219 242 240 252 209 179 156 261 312 264 277 290 303 297 286 278 271 264 248 256 277 292
176 175 180 178 184 193 209 208 185 212 203 204 211 217 209 214 205 179 204 222 210 205 226 222 252 261 249 227 193 241 222 271 275 291 281 269 272 268 265 261 261 269 279 286
176 174 176 183 188 185 204 223 182 223 214 180 208 212 216 217 204 203 204 206 227 229 233 301 338 239 341 278 258 261 270 259 254 270 265 291 283 264 252 256 263 260 285 306
180 177 177 182 187 194 204 203 208 228 209 208 201 211 215 211 221 222 219 219 216 207 116 110 180 252 256 256 250 249 238 236 254 258 276 250 243 287 331 295 290 292 325 351
183 179 179 184 188 200 218 232 220 222 221 214 218 211 208 219 192 220 205 194 295 153 155 201 233 230 248 242 241 233 227 245 232 240 237 264 274 270 264 263 280 31 16 8
183 179 180 184 187 194 205 224 236 266 226 216 226 208 206 204 212 189 197 146 132 152 171 195 213 219 216 186 150 318 26 225 203 216 244 240 80 142 62 331 270 98 51 357
185 181 182 181 184 186 200 215 238 221 232 251 218 218 212 208 199 212 201 163 183 199 207 216 215 223 239 211 207 171 174 203 220 230 251 262 268 129 155 225 75 120 338 317
184 181 179 179 180 181 194 209 196 224 221 254 227 266 249 240 198 192 182 190 209 190 212 207 203 240 234 237 238 180 188 197 193 217 235 258 233 157 221 80 75 301 295 250
182 178 177 176 179 182 189 205 198 163 262 312 307 297 323 332 352 299 186 201 174 197 203 211 199 220 232 228 244 235 222 222 214 210 223 150 183 333 8 320 306 304 230 174
181 177 174 177 182 184 187 206 163 171 137 313 269 236 232 280 267 330 246 230 240 223 283 236 234 239 236 233 236 247 228 237 257 258 261 251 229 254 245 260 281 166 174 179
182 178 175 176 181 184 187 202 187 169 117 233 253 245 245 326 260 245 255 277 248 246 229 235 231 235 235 249 259 250 251 217 233 254 261 278 275 275 314 157 154 162 173 183
185 179 176 175 179 186 191 200 203 190 187 195 212 260 216 217 225 233 236 241 228 229 221 229 244 249 253 248 298 247 251 244 248 249 259 253 288 290 191 175 190 187 188 190
186 180 176 176 178 181 173 203 227 207 209 162 291 318 204 202 222 230 216 246 258 242 249 222 207 233 248 234 236 241 243 248 243 247 246 286 307 217 190 199 184 176 183 183
183 179 176 178 179 179 185 196 180 177 146 134 219 245 204 211 199 213 236 260 247 257 240 232 252 221 216 257 256 256 256 223 247 253 256 244 223 230 205 191 171 172 174 165
179 176 176 179 180 181 211 220 157 150 112 143 194 160 193 213 182 196 185 216 221 233 233 235 244 250 220 253 253 241 241 252 254 255 251 251 252 209 193 178 171 174 174 173
174 173 173 172 184 198 204 174 173 171 160 179 177 181 195 167 152 139 155 185 217 233 238 231 233 230 229 235 244 246 241 238 243 251 252 246 219 214 194 191 184 182 183 177
173 162 180 175 190 147 130 157 191 207 192 188 210 223 179 177 158 138 140 191 218 231 233 234 241 247 251 259 267 260 252 256 253 254 248 239 214 200 197 200 193 191 182 177
170 176 167 157 140 148 177 183 193 159 164 200 203 196 144 190 170 160 198 193 195 242 212 213 242 252 237 238 240 248 256 259 256 254 248 219 213 209 200 194 189 186 177 175
160 129 146 134 157 191 174 192 171 199 179 172 195 181 156 164 161 164 180 198 203 235 144 211 250 257 241 247 253 259 258 256 252 242 244 204 203 209 200 187 179 177 171 164
144 183 153 167 175 180 190 174 195 181 190 184 190 166 140 147 195 153 180 206 216 157 216 240 251 257 260 268 270 267 272 263 250 235 229 216 191 193 178 175 170 166 163 164
173 163 153 205 176 181 191 193 191 180 163 176 170 153 162 177 188 166 203 212 181 221 240 248 248 250 262 267 269 259 251 238 222 200 185 177 172 163 165 166 162 160 155 148
176 184 194 207 194 174 193 183 179 174 176 160 161 164 130 173 164 194 204 191 216 227 244 249 248 255 264 274 249 240 231 202 193 177 168 148 147 147 144 145 155 144 137 142
235 199 182 188 192 170 167 170 173 171 165 163 163 164 174 180 179 179 198 217 228 239 237 249 260 249 243 231 219 217 197 183 175 164 153 150 149 156 153 151 148 148 147 147
196 188 179 159 169 170 169 168 164 166 162 171 177 184 185 163 204 210 210 224 236 245 252 250 248 232 196 187 176 176 170 174 166 156 161 157 156 152 151 152 155 157 155 144